SCP
-0 -0 -0 0 0 0 0 0 0 0 0 0 0 0 0 0 0 0 0 0 -0 0 0 0 -0 -0 -0 -0 -0 -0 -0 -0 -0 -0 -0 -0 -0 -0 -0 -0 -0 -0 -0 -0 -0 -0 -0 0 0
0 0 0 0 0 0 0 0 0 0 0 0 0 0 0 0 0 0 0 -0 -0 -0 0 0 -0 -0 -0 -0 0 -0 -0 -0 -0 -0 -0 -0 -0 -0 -0 -0 -0 -0 -0 -0 -0 -0 0 0 0
0 -0 0 0 0 0 0 0 0 0 0 0 0 0 0 0 0 0 0 -0 -0 0 0 0 -0 -0 -0 -0 -0 -0 -0 -0 -0 -0 -0 -0 -0 -0 -0 -0 -0 -0 -0 -0 -0 -0 -0 0 0
0 0 0 0 0 0 -0 0 0 0 0 0 0 0 0 0 0 0 0 -0 0 0 0 0 -0 -0 -0 -0 -0 -0 -0 -0 -0 -0 -0 -0 -0 -0 0 0 0 -0 -0 -0 -0 0 0 0 0
0 0 0 0 0 0 0 0 0 0 -0 0 0 0 0 0 0 0 0 0 0 0 0 0 -0 -0 -0 -0 -0 -0 -0 -0 -0 -0 -0 -0 -0 -0 -0 0 0 0 0 -0 -0 -0 0 0 0
0 0 0 0 0 0 0 0 0 -0 -0 0 0 0 0 0 0 0 0 0 0 0 0 0 0 -0 -0 -0 -0 -0 -0 0 -0 -0 -0 -0 -0 -0 -0 -0 0 0 0 0 0 0 0 0 0
0 0 0 0 0 0 0 0 0 0 0 -0 0 0 0 0 0 0 0 0 0 0 0 0 0 0 -0 -0 -0 -0 -0 -0 -0 -0 -0 -0 -0 -0 -0 -0 0 0 0 0 0 0 0 0 0
0 0 0 0 0 0 0 0 0 0 0 0 0 -0 0 0 0 0 0 0 0 0 0 0 0 0 0 0 -0 -0 -0 -0 -0 -0 -0 -0 -0 -0 -0 -0 -0 0 0 0 0 0 0 0 0
0 0 0 0 0 0 0 0 0 0 0 0 0 0 0 -0 0 0 0 0 0 0 0 0 0 0 0 0 0 0 -0 -0 -0 -0 -0 -0 0 -0 -0 0 -0 -0 0 0 0 0 0 0 0
0 0 0 0 0 0 0 0 0 0 0 0 0 0 0 0 0 0 0 0 0 0 0 0 0 0 0 0 0 0 0 0 0 0 -0 0 0 0 0 0 0 0 0 0 0 0 0 0 0
0 0 0 0 0 0 0 0 0 0 0 0 0 0 0 0 0 0 0 0 0 0 0 0 0 0 0 0 0 0 0 0 0 0 0 0 0 0 0 0 0 0 0 0 0 0 0 0 0
0 0 0 0 0 0 0 0 0 0 0 0 0 0 0 0 0 0 0 0 0 0 0 0 0 0 0 0 0 0 0 0 0 0 0 0 0 0 0 0 0 0 0 0 0 0 0 0 0
0 0 0 0 0 0 0 0 0 0 0 0 0 0 0 0 0 0 0 0 0 0 0 0 0 0 0 0 0 0 0 0 0 0 0 0 0 0 0 0 0 0 0 0 0 0 0 0 0
0 0 0 0 0 0 0 0 0 0 0 0 0 0 0 0 0 0 0 0 0 0 0 0 0 0 0 0 0 0 0 0 0 0 0 0 0 0 0 0 0 0 0 0 0 0 0 0 0
0 0 0 0 0 0 0 0 0 0 0 0 0 0 0 0 0 0 0 0 0 0 0 0 0 0 0 0 0 0 0 0 0 0 0 0 0 0 0 0 0 0 0 0 0 0 0 0 0
0 0 0 0 0 0 0 0 0 0 0 0 0 0 0 0 0 0 0 0 0 0 0 0 0 0 0 0 0 0 0 0 0 0 0 0 0 0 0 0 0 0 0 0 0 0 0 0 0
0 0 0 0 0 0 0 0 0 0 0 0 0 0 0 0 0 0 0 0 0 0 0 0 0 0 0 0 0 0 0 0 0 0 0 0 0 0 0 0 0 0 0 0 0 0 0 0 0
0 0 0 0 0 0 0 0 0 0 0 0 0 0 0 0 0 0 0 0 0 0 0 0 0 0 0 0 0 0 0 0 0 0 0 0 0 0 0 0 0 0 0 0 0 0 0 0 0
0 0 0 0 0 0 0 0 0 0 0 0 0 0 0 0 0 0 0 0 0 0 0 0 0 0 0 0 0 0 0 0 0 0 0 0 0 0 0 0 0 0 0 0 0 0 0 0 0
0 0 0 0 0 0 0 0 0 0 0 0 0 0 0 0 0 0 0 0 0 0 0 0 0 0 0 0 0 0 0 0 0 0 0 0 0 0 0 0 0 0 0 0 0 0 0 0 0
0 0 0 0 0 0 0 0 0 0 0 0 0 0 0 0 0 0 0 0 0 0 0 0 0 0 0 0 0 0 0 0 0 0 0 0 0 0 0 0 0 0 0 0 0 0 0 0 0
0 0 0 0 0 0 0 0 0 0 0 0 0 0 0 0 0 0 0 0 0 0 0 0 0 0 0 0 0 0 0 0 0 0 0 0 0 0 0 0 0 0 0 0 0 0 0 0 0
0 0 0 0 0 0 0 0 0 0 0 0 0 0 0 0 0 0 0 0 0 0 0 0 0 0 0 0 0 0 0 0 0 0 0 0 0 0 0 0 0 0 0 0 0 0 0 0 0
0 0 0 0 0 0 0 0 0 0 0 0 0 0 0 0 0 0 0 0 0 0 0 0 0 0 0 0 0 0 0 0 0 0 0 0 0 0 0 0 0 0 0 0 0 0 0 0 0
0 0 0 0 0 0 0 0 0 0 0 0 0 0 0 0 0 0 0 0 0 0 0 0 0 0 0 0 0 0 0 0 0 0 0 0 0 0 0 0 0 0 0 0 0 0 0 0 0
0 0 0 0 0 0 0 0 0 0 0 0 0 0 0 0 0 0 0 0 0 0 0 0 0 0 0 0 0 0 0 0 0 0 0 0 0 0 0 0 0 0 0 0 0 0 0 0 0
0 0 0 0 0 0 0 0 0 0 0 0 0 0 0 0 0 0 0 0 0 0 0 0 0 0 0 0 0 0 0 0 0 0 0 0 0 0 0 0 0 0 0 0 0 0 0 0 0
0 0 0 0 0 0 0 0 0 0 0 0 0 0 0 0 0 0 0 0 0 0 0 0 0 0 0 0 0 0 0 0 0 0 0 0 0 0 0 0 0 0 0 0 0 0 0 0 0
0 0 0 0 0 0 0 0 0 0 0 0 0 0 0 0 0 0 0 0 0 0 0 0 0 0 0 0 0 0 0 0 0 0 0 0 0 0 0 0 0 0 0 0 0 0 0 0 0
0 0 0 0 0 0 0 0 0 0 0 0 0 0 0 0 0 0 -0 -0 0 0 0 0 0 0 0 0 0 0 0 0 0 0 0 0 0 0 0 0 0 0 0 0 0 0 0 0 0
Wind_Speed_500mb
35 26 12 3 6 7 5 2 8 9 7 16 23 21 19 15 6 7 44 42 30 43 39 33 29 29 32 34 31 26 23 21 22 20 20 21 20 20 20 19 15 17 23 25 26 27 26 27 28
34 18 8 3 6 1 7 6 10 7 18 25 19 13 9 5 14 42 47 31 35 44 39 35 31 30 32 35 32 26 21 19 17 15 16 16 18 18 19 19 19 24 23 21 24 24 24 24 24
22 14 5 4 4 3 8 8 15 19 24 19 9 12 9 8 22 55 39 42 35 49 40 35 31 30 32 35 32 25 21 18 17 16 17 15 15 17 17 19 19 19 21 20 21 21 21 22 23
20 1 7 3 10 8 10 16 32 13 11 10 19 16 15 9 46 40 46 40 42 51 42 36 33 30 31 34 33 27 21 18 16 14 15 15 13 15 14 15 15 16 16 17 19 19 19 19 20
10 5 4 5 9 5 6 37 29 12 15 9 13 10 15 24 21 35 55 44 40 50 44 38 33 30 30 30 29 26 21 18 18 16 14 16 14 11 11 10 9 13 13 13 16 15 15 15 16
8 3 5 7 10 4 6 33 37 22 22 20 18 17 11 19 29 46 53 44 37 45 45 39 34 29 27 26 25 23 20 19 20 19 12 14 14 12 11 9 8 8 9 9 10 10 10 10 11
3 6 8 10 5 5 8 27 24 19 28 17 17 9 23 30 33 58 45 37 36 42 42 40 35 32 28 26 25 24 22 21 20 21 13 12 14 12 12 12 10 9 9 8 7 7 8 6 6
6 7 6 7 5 10 15 21 9 38 10 24 12 13 15 42 55 50 38 31 27 42 40 42 37 34 32 30 27 25 22 19 19 22 20 9 5 4 11 13 12 10 10 11 10 9 8 6 5
7 5 6 8 10 11 20 10 9 14 33 12 9 13 15 53 57 58 47 41 35 34 39 45 41 37 33 31 29 27 23 22 20 19 18 14 10 7 6 7 8 10 13 13 13 12 11 11 10
8 6 14 2 3 6 10 13 18 10 23 11 20 17 36 54 63 68 63 56 52 46 42 42 46 40 36 33 31 29 26 23 22 22 21 18 15 14 6 8 7 5 6 9 13 14 14 15 15
11 10 3 1 5 5 15 6 15 14 4 19 38 53 50 55 64 65 60 53 51 47 44 44 42 41 38 37 33 32 30 28 25 24 24 22 20 17 17 16 13 14 16 15 12 11 14 16 18
7 20 14 5 3 3 3 19 11 17 6 7 36 44 51 52 62 66 61 56 51 54 49 47 44 43 37 33 34 32 33 32 30 27 26 26 27 24 24 24 23 22 18 16 16 15 14 15 16
11 6 11 15 8 5 6 7 3 8 6 6 37 51 49 46 52 59 58 49 45 44 53 50 48 48 43 42 37 34 33 35 31 31 29 28 30 31 29 27 26 24 22 19 19 19 19 19 20
12 21 14 18 12 7 5 3 3 5 11 7 39 52 44 40 40 44 56 55 51 44 47 50 51 48 53 49 43 39 36 32 32 32 31 31 31 32 33 31 29 27 27 25 24 24 24 25 26
12 3 5 13 12 6 10 8 16 14 15 26 35 34 35 32 32 39 39 42 40 39 34 43 45 48 54 58 52 45 39 38 37 36 36 36 35 35 36 35 32 30 31 31 30 30 29 29 30
10 5 4 9 22 12 16 12 16 27 19 27 27 33 34 31 32 28 35 35 35 35 39 35 38 41 45 52 56 56 51 50 47 45 43 43 41 39 39 39 37 33 35 35 34 32 33 32 33
4 6 10 11 27 8 10 6 15 29 40 33 29 31 37 39 39 33 30 35 39 43 42 39 38 38 38 41 47 52 55 57 58 56 54 53 51 48 45 44 41 39 39 40 37 35 36 36 34
11 8 7 13 10 9 11 13 6 6 19 30 34 32 24 46 46 40 37 36 35 36 40 41 41 40 39 40 42 46 51 51 52 52 50 49 53 54 52 49 47 44 44 43 41 41 39 38 35
10 8 7 4 3 7 11 9 17 25 17 20 23 24 30 22 35 40 34 35 38 41 43 45 46 45 47 50 51 52 53 51 52 50 49 49 49 51 57 56 53 49 49 46 44 43 40 37 32
9 9 7 5 3 7 3 10 14 13 14 30 34 37 36 36 29 33 35 38 42 47 50 50 53 53 54 57 55 55 52 56 53 49 51 53 55 53 53 55 56 56 55 52 50 47 45 42 39
12 13 9 5 4 5 5 10 11 15 28 45 42 35 36 43 44 42 37 43 51 57 57 57 58 58 57 61 57 56 55 57 57 58 56 53 53 55 56 56 54 52 59 60 56 52 48 47 43
10 10 6 10 7 6 4 9 9 8 16 14 50 59 55 53 48 45 45 40 31 50 60 54 53 54 59 58 64 66 66 66 63 56 49 46 41 38 41 50 56 50 49 57 58 51 49 47 50
7 6 12 6 8 7 7 3 13 12 11 14 33 45 42 34 36 32 30 36 41 42 39 47 56 61 63 65 69 67 69 68 61 56 52 48 41 35 36 39 43 47 47 45 49 49 48 49 50
12 14 16 10 7 2 14 13 10 8 9 7 8 13 21 15 8 10 16 25 31 28 34 44 54 61 64 58 62 67 65 63 62 57 53 47 41 36 33 33 34 46 49 49 49 46 47 45 44
9 11 5 6 4 10 4 9 15 14 3 5 18 24 14 6 3 2 4 12 15 19 20 22 25 30 42 53 62 58 60 59 62 58 54 48 42 43 40 37 39 46 48 47 44 43 40 41 38
12 10 10 14 8 8 4 10 10 14 17 14 22 14 8 9 7 4 6 10 10 12 14 14 14 12 15 29 42 56 59 60 57 51 50 47 45 46 41 35 36 40 44 45 42 49 42 42 41
10 8 7 11 6 7 7 9 18 8 7 15 14 20 17 12 12 13 16 18 18 17 15 14 11 10 12 14 21 31 40 53 57 54 51 47 39 37 35 32 31 29 31 34 36 37 38 41 43
8 9 7 5 7 4 7 5 9 9 8 13 15 15 16 15 19 23 24 24 23 20 16 14 12 9 8 9 12 15 19 26 33 39 42 42 35 32 28 29 26 26 26 29 31 33 35 38 39
4 5 3 8 9 9 6 9 10 3 16 18 17 17 17 23 26 27 28 31 30 26 21 18 15 13 9 8 8 10 13 19 24 27 27 29 31 31 30 28 26 24 25 27 30 32 35 38 40
4 9 9 8 7 3 6 9 7 14 22 28 17 15 20 20 17 18 20 25 23 31 34 23 19 20 19 18 16 15 16 18 21 24 24 25 25 25 23 21 21 21 23 26 28 31 33 35 37
Wind_Direction_500mb
336 340 337 329 42 73 252 201 137 110 61 81 81 85 113 72 58 161 151 175 175 162 161 155 147 147 148 145 140 137 131 129 126 122 123 124 117 103 114 130 115 98 100 98 98 95 96 99 102
333 341 336 305 96 28 279 173 129 118 124 105 99 104 67 103 114 140 161 182 175 167 163 156 148 150 153 151 142 147 149 137 128 126 132 131 126 118 107 118 122 111 104 103 98 96 97 100 102
327 333 310 132 162 230 172 136 133 120 120 124 113 67 81 114 140 152 166 174 182 171 163 155 153 154 155 154 148 160 152 137 129 129 139 139 129 131 116 118 122 126 118 108 103 100 96 96 99
344 7 263 88 260 281 165 152 130 116 104 107 119 82 88 151 147 154 172 177 167 168 164 159 158 157 158 161 160 167 161 152 144 135 134 141 138 139 130 114 122 127 126 116 110 103 96 93 97
1 300 341 282 266 209 95 142 131 127 154 159 116 133 104 145 164 170 176 181 179 168 166 164 163 161 161 166 171 173 175 172 163 146 136 138 145 149 151 138 126 137 134 122 113 108 100 96 96
341 1 6 272 346 249 126 145 144 157 167 169 122 113 141 170 169 178 174 184 192 172 170 171 168 167 167 168 173 177 179 174 161 154 151 156 147 158 166 174 166 151 153 149 134 124 113 102 97
108 86 234 276 271 282 183 150 156 159 138 170 161 95 145 177 169 171 176 186 194 176 180 178 177 174 174 177 179 181 182 177 172 170 187 172 172 172 178 192 197 193 182 178 181 168 159 142 121
286 109 279 270 265 258 182 152 149 154 171 162 147 159 171 177 161 164 176 184 191 182 185 185 186 184 184 187 188 190 192 177 177 167 194 183 179 173 190 195 210 222 219 208 201 216 218 208 198
257 88 248 270 5 305 177 138 137 138 140 136 137 164 209 168 163 165 181 183 180 190 192 191 193 194 194 196 198 198 201 191 190 189 198 211 220 223 187 185 187 231 245 242 232 229 236 242 244
177 193 206 205 101 323 278 145 144 129 144 94 115 146 154 166 169 173 189 192 189 184 193 200 197 199 201 203 206 205 208 209 204 203 205 210 221 219 242 225 209 256 272 261 258 258 251 254 259
195 208 208 295 102 37 327 224 174 126 223 180 161 158 167 174 177 181 194 203 200 197 193 201 202 199 205 210 210 211 212 215 216 215 217 216 222 229 248 258 265 278 279 271 265 258 252 257 262
215 241 243 269 358 81 17 315 178 187 181 189 210 190 179 183 187 188 197 204 207 213 201 201 209 204 207 217 211 214 217 219 221 223 222 221 225 238 249 260 266 267 271 269 271 265 263 266 268
199 250 214 226 250 253 262 305 257 216 149 280 198 190 192 192 195 198 199 210 214 216 210 207 210 206 205 216 224 222 223 222 226 226 226 228 227 235 244 254 260 257 263 268 279 282 282 285 287
199 225 226 200 227 239 186 267 311 214 201 188 180 189 196 199 197 198 203 214 223 223 217 221 217 216 207 216 225 227 229 231 232 237 238 239 241 240 246 250 257 265 272 276 277 278 279 279 281
132 95 284 200 190 246 181 289 230 210 183 173 168 187 199 206 210 216 210 210 224 225 226 227 229 227 220 218 225 229 231 234 239 242 244 244 245 247 247 249 253 258 261 264 265 268 270 275 281
121 89 197 239 172 207 166 252 232 205 179 175 188 193 208 214 220 222 220 223 228 235 236 237 231 232 232 229 224 226 229 233 239 241 246 250 253 251 253 254 256 257 259 262 262 264 268 272 274
211 177 196 296 184 143 182 224 244 214 208 202 194 211 213 213 216 223 224 218 224 230 235 239 239 238 240 241 238 235 236 234 240 242 246 248 252 254 252 256 258 256 258 261 264 264 267 270 273
174 183 206 203 218 160 184 244 281 228 191 202 204 204 229 215 214 218 220 223 227 229 232 238 244 246 243 243 245 244 242 244 244 246 245 242 244 249 254 255 253 252 254 256 259 262 262 265 270
187 159 187 177 288 135 207 226 259 262 246 224 229 229 233 215 221 214 212 223 232 240 239 236 238 244 246 245 242 243 247 250 249 251 254 255 252 242 245 251 251 250 252 255 257 257 260 266 272
231 170 182 28 356 105 32 277 269 282 251 233 233 235 237 245 225 220 214 218 230 240 243 245 249 251 252 253 253 253 257 258 260 263 262 262 258 254 250 244 246 248 248 250 249 252 259 264 261
188 179 208 119 186 32 114 294 253 254 246 253 249 247 246 250 252 250 247 242 242 241 241 242 245 249 254 259 259 257 256 256 255 258 261 263 261 258 256 255 252 250 244 246 249 249 253 259 263
181 190 172 117 117 209 182 274 289 241 265 238 250 251 252 256 260 259 254 250 245 241 238 228 231 239 246 249 253 254 257 261 265 267 269 270 269 266 262 257 252 250 252 245 246 250 254 257 259
194 126 133 115 120 81 310 17 271 275 262 237 239 242 250 261 250 249 243 242 250 248 235 232 235 236 236 243 249 252 252 261 267 266 266 267 269 261 254 259 251 243 248 251 248 249 251 255 255
139 82 47 48 80 33 220 170 272 240 194 223 102 156 150 152 178 225 239 244 245 243 249 252 253 250 243 238 238 246 250 255 255 256 261 263 262 262 251 248 253 244 247 253 254 255 255 256 260
105 88 36 18 5 214 339 153 250 262 269 127 154 139 120 89 85 55 252 261 264 271 274 271 261 258 247 240 237 236 242 245 248 251 254 253 255 259 258 256 243 240 243 246 247 253 258 259 252
174 152 156 181 192 214 328 217 246 236 173 136 139 134 102 86 80 29 355 335 322 313 310 302 285 277 254 236 234 238 242 243 242 241 240 248 246 251 249 244 241 235 237 241 243 246 250 256 256
216 206 176 102 26 76 215 271 315 239 120 114 113 117 91 73 59 53 46 38 23 9 355 343 331 311 284 259 241 237 238 237 237 238 245 246 246 236 234 235 231 230 232 237 241 247 251 254 260
153 168 71 4 121 209 280 243 218 297 69 109 94 79 80 86 85 76 64 54 44 33 16 355 344 333 308 288 272 256 244 234 231 235 239 239 231 225 232 237 239 242 244 248 252 255 259 261 263
172 192 150 128 162 158 155 255 225 153 143 133 121 103 101 97 88 70 52 40 30 22 13 357 336 321 309 294 275 252 233 225 221 221 219 217 220 225 229 231 236 242 248 252 257 259 259 262 264
204 194 159 133 236 172 138 264 141 133 134 134 142 128 125 118 106 85 37 19 5 1 348 342 322 303 291 286 277 253 232 217 210 208 208 208 212 220 227 233 242 252 261 264 264 265 266 266 267
Wind_Speed_850mb
35 26 12 3 6 7 5 2 8 9 7 16 23 21 19 15 6 7 44 42 30 43 39 33 29 29 32 34 31 26 23 21 22 20 20 21 20 20 20 19 15 17 23 25 26 27 26 27 28
34 18 8 3 6 1 7 6 10 7 18 25 19 13 9 5 14 42 47 31 35 44 39 35 31 30 32 35 32 26 21 19 17 15 16 16 18 18 19 19 19 24 23 21 24 24 24 24 24
22 14 5 4 4 3 8 8 15 19 24 19 9 12 9 8 22 55 39 42 35 49 40 35 31 30 32 35 32 25 21 18 17 16 17 15 15 17 17 19 19 19 21 20 21 21 21 22 23
20 1 7 3 10 8 10 16 32 13 11 10 19 16 15 9 46 40 46 40 42 51 42 36 33 30 31 34 33 27 21 18 16 14 15 15 13 15 14 15 15 16 16 17 19 19 19 19 20
10 5 4 5 9 5 6 37 29 12 15 9 13 10 15 24 21 35 55 44 40 50 44 38 33 30 30 30 29 26 21 18 18 16 14 16 14 11 11 10 9 13 13 13 16 15 15 15 16
8 3 5 7 10 4 6 33 37 22 22 20 18 17 11 19 29 46 53 44 37 45 45 39 34 29 27 26 25 23 20 19 20 19 12 14 14 12 11 9 8 8 9 9 10 10 10 10 11
3 6 8 10 5 5 8 27 24 19 28 17 17 9 23 30 33 58 45 37 36 42 42 40 35 32 28 26 25 24 22 21 20 21 13 12 14 12 12 12 10 9 9 8 7 7 8 6 6
6 7 6 7 5 10 15 21 9 38 10 24 12 13 15 42 55 50 38 31 27 42 40 42 37 34 32 30 27 25 22 19 19 22 20 9 5 4 11 13 12 10 10 11 10 9 8 6 5
7 5 6 8 10 11 20 10 9 14 33 12 9 13 15 53 57 58 47 41 35 34 39 45 41 37 33 31 29 27 23 22 20 19 18 14 10 7 6 7 8 10 13 13 13 12 11 11 10
8 6 14 2 3 6 10 13 18 10 23 11 20 17 36 54 63 68 63 56 52 46 42 42 46 40 36 33 31 29 26 23 22 22 21 18 15 14 6 8 7 5 6 9 13 14 14 15 15
11 10 3 1 5 5 15 6 15 14 4 19 38 53 50 55 64 65 60 53 51 47 44 44 42 41 38 37 33 32 30 28 25 24 24 22 20 17 17 16 13 14 16 15 12 11 14 16 18
7 20 14 5 3 3 3 19 11 17 6 7 36 44 51 52 62 66 61 56 51 54 49 47 44 43 37 33 34 32 33 32 30 27 26 26 27 24 24 24 23 22 18 16 16 15 14 15 16
11 6 11 15 8 5 6 7 3 8 6 6 37 51 49 46 52 59 58 49 45 44 53 50 48 48 43 42 37 34 33 35 31 31 29 28 30 31 29 27 26 24 22 19 19 19 19 19 20
12 21 14 18 12 7 5 3 3 5 11 7 39 52 44 40 40 44 56 55 51 44 47 50 51 48 53 49 43 39 36 32 32 32 31 31 31 32 33 31 29 27 27 25 24 24 24 25 26
12 3 5 13 12 6 10 8 16 14 15 26 35 34 35 32 32 39 39 42 40 39 34 43 45 48 54 58 52 45 39 38 37 36 36 36 35 35 36 35 32 30 31 31 30 30 29 29 30
10 5 4 9 22 12 16 12 16 27 19 27 27 33 34 31 32 28 35 35 35 35 39 35 38 41 45 52 56 56 51 50 47 45 43 43 41 39 39 39 37 33 35 35 34 32 33 32 33
4 6 10 11 27 8 10 6 15 29 40 33 29 31 37 39 39 33 30 35 39 43 42 39 38 38 38 41 47 52 55 57 58 56 54 53 51 48 45 44 41 39 39 40 37 35 36 36 34
11 8 7 13 10 9 11 13 6 6 19 30 34 32 24 46 46 40 37 36 35 36 40 41 41 40 39 40 42 46 51 51 52 52 50 49 53 54 52 49 47 44 44 43 41 41 39 38 35
10 8 7 4 3 7 11 9 17 25 17 20 23 24 30 22 35 40 34 35 38 41 43 45 46 45 47 50 51 52 53 51 52 50 49 49 49 51 57 56 53 49 49 46 44 43 40 37 32
9 9 7 5 3 7 3 10 14 13 14 30 34 37 36 36 29 33 35 38 42 47 50 50 53 53 54 57 55 55 52 56 53 49 51 53 55 53 53 55 56 56 55 52 50 47 45 42 39
12 13 9 5 4 5 5 10 11 15 28 45 42 35 36 43 44 42 37 43 51 57 57 57 58 58 57 61 57 56 55 57 57 58 56 53 53 55 56 56 54 52 59 60 56 52 48 47 43
10 10 6 10 7 6 4 9 9 8 16 14 50 59 55 53 48 45 45 40 31 50 60 54 53 54 59 58 64 66 66 66 63 56 49 46 41 38 41 50 56 50 49 57 58 51 49 47 50
7 6 12 6 8 7 7 3 13 12 11 14 33 45 42 34 36 32 30 36 41 42 39 47 56 61 63 65 69 67 69 68 61 56 52 48 41 35 36 39 43 47 47 45 49 49 48 49 50
12 14 16 10 7 2 14 13 10 8 9 7 8 13 21 15 8 10 16 25 31 28 34 44 54 61 64 58 62 67 65 63 62 57 53 47 41 36 33 33 34 46 49 49 49 46 47 45 44
9 11 5 6 4 10 4 9 15 14 3 5 18 24 14 6 3 2 4 12 15 19 20 22 25 30 42 53 62 58 60 59 62 58 54 48 42 43 40 37 39 46 48 47 44 43 40 41 38
12 10 10 14 8 8 4 10 10 14 17 14 22 14 8 9 7 4 6 10 10 12 14 14 14 12 15 29 42 56 59 60 57 51 50 47 45 46 41 35 36 40 44 45 42 49 42 42 41
10 8 7 11 6 7 7 9 18 8 7 15 14 20 17 12 12 13 16 18 18 17 15 14 11 10 12 14 21 31 40 53 57 54 51 47 39 37 35 32 31 29 31 34 36 37 38 41 43
8 9 7 5 7 4 7 5 9 9 8 13 15 15 16 15 19 23 24 24 23 20 16 14 12 9 8 9 12 15 19 26 33 39 42 42 35 32 28 29 26 26 26 29 31 33 35 38 39
4 5 3 8 9 9 6 9 10 3 16 18 17 17 17 23 26 27 28 31 30 26 21 18 15 13 9 8 8 10 13 19 24 27 27 29 31 31 30 28 26 24 25 27 30 32 35 38 40
4 9 9 8 7 3 6 9 7 14 22 28 17 15 20 20 17 18 20 25 23 31 34 23 19 20 19 18 16 15 16 18 21 24 24 25 25 25 23 21 21 21 23 26 28 31 33 35 37
Wind_Direction_850mb
336 340 337 329 42 73 252 201 137 110 61 81 81 85 113 72 58 161 151 175 175 162 161 155 147 147 148 145 140 137 131 129 126 122 123 124 117 103 114 130 115 98 100 98 98 95 96 99 102
333 341 336 305 96 28 279 173 129 118 124 105 99 104 67 103 114 140 161 182 175 167 163 156 148 150 153 151 142 147 149 137 128 126 132 131 126 118 107 118 122 111 104 103 98 96 97 100 102
327 333 310 132 162 230 172 136 133 120 120 124 113 67 81 114 140 152 166 174 182 171 163 155 153 154 155 154 148 160 152 137 129 129 139 139 129 131 116 118 122 126 118 108 103 100 96 96 99
344 7 263 88 260 281 165 152 130 116 104 107 119 82 88 151 147 154 172 177 167 168 164 159 158 157 158 161 160 167 161 152 144 135 134 141 138 139 130 114 122 127 126 116 110 103 96 93 97
1 300 341 282 266 209 95 142 131 127 154 159 116 133 104 145 164 170 176 181 179 168 166 164 163 161 161 166 171 173 175 172 163 146 136 138 145 149 151 138 126 137 134 122 113 108 100 96 96
341 1 6 272 346 249 126 145 144 157 167 169 122 113 141 170 169 178 174 184 192 172 170 171 168 167 167 168 173 177 179 174 161 154 151 156 147 158 166 174 166 151 153 149 134 124 113 102 97
108 86 234 276 271 282 183 150 156 159 138 170 161 95 145 177 169 171 176 186 194 176 180 178 177 174 174 177 179 181 182 177 172 170 187 172 172 172 178 192 197 193 182 178 181 168 159 142 121
286 109 279 270 265 258 182 152 149 154 171 162 147 159 171 177 161 164 176 184 191 182 185 185 186 184 184 187 188 190 192 177 177 167 194 183 179 173 190 195 210 222 219 208 201 216 218 208 198
257 88 248 270 5 305 177 138 137 138 140 136 137 164 209 168 163 165 181 183 180 190 192 191 193 194 194 196 198 198 201 191 190 189 198 211 220 223 187 185 187 231 245 242 232 229 236 242 244
177 193 206 205 101 323 278 145 144 129 144 94 115 146 154 166 169 173 189 192 189 184 193 200 197 199 201 203 206 205 208 209 204 203 205 210 221 219 242 225 209 256 272 261 258 258 251 254 259
195 208 208 295 102 37 327 224 174 126 223 180 161 158 167 174 177 181 194 203 200 197 193 201 202 199 205 210 210 211 212 215 216 215 217 216 222 229 248 258 265 278 279 271 265 258 252 257 262
215 241 243 269 358 81 17 315 178 187 181 189 210 190 179 183 187 188 197 204 207 213 201 201 209 204 207 217 211 214 217 219 221 223 222 221 225 238 249 260 266 267 271 269 271 265 263 266 268
199 250 214 226 250 253 262 305 257 216 149 280 198 190 192 192 195 198 199 210 214 216 210 207 210 206 205 216 224 222 223 222 226 226 226 228 227 235 244 254 260 257 263 268 279 282 282 285 287
199 225 226 200 227 239 186 267 311 214 201 188 180 189 196 199 197 198 203 214 223 223 217 221 217 216 207 216 225 227 229 231 232 237 238 239 241 240 246 250 257 265 272 276 277 278 279 279 281
132 95 284 200 190 246 181 289 230 210 183 173 168 187 199 206 210 216 210 210 224 225 226 227 229 227 220 218 225 229 231 234 239 242 244 244 245 247 247 249 253 258 261 264 265 268 270 275 281
121 89 197 239 172 207 166 252 232 205 179 175 188 193 208 214 220 222 220 223 228 235 236 237 231 232 232 229 224 226 229 233 239 241 246 250 253 251 253 254 256 257 259 262 262 264 268 272 274
211 177 196 296 184 143 182 224 244 214 208 202 194 211 213 213 216 223 224 218 224 230 235 239 239 238 240 241 238 235 236 234 240 242 246 248 252 254 252 256 258 256 258 261 264 264 267 270 273
174 183 206 203 218 160 184 244 281 228 191 202 204 204 229 215 214 218 220 223 227 229 232 238 244 246 243 243 245 244 242 244 244 246 245 242 244 249 254 255 253 252 254 256 259 262 262 265 270
187 159 187 177 288 135 207 226 259 262 246 224 229 229 233 215 221 214 212 223 232 240 239 236 238 244 246 245 242 243 247 250 249 251 254 255 252 242 245 251 251 250 252 255 257 257 260 266 272
231 170 182 28 356 105 32 277 269 282 251 233 233 235 237 245 225 220 214 218 230 240 243 245 249 251 252 253 253 253 257 258 260 263 262 262 258 254 250 244 246 248 248 250 249 252 259 264 261
188 179 208 119 186 32 114 294 253 254 246 253 249 247 246 250 252 250 247 242 242 241 241 242 245 249 254 259 259 257 256 256 255 258 261 263 261 258 256 255 252 250 244 246 249 249 253 259 263
181 190 172 117 117 209 182 274 289 241 265 238 250 251 252 256 260 259 254 250 245 241 238 228 231 239 246 249 253 254 257 261 265 267 269 270 269 266 262 257 252 250 252 245 246 250 254 257 259
194 126 133 115 120 81 310 17 271 275 262 237 239 242 250 261 250 249 243 242 250 248 235 232 235 236 236 243 249 252 252 261 267 266 266 267 269 261 254 259 251 243 248 251 248 249 251 255 255
139 82 47 48 80 33 220 170 272 240 194 223 102 156 150 152 178 225 239 244 245 243 249 252 253 250 243 238 238 246 250 255 255 256 261 263 262 262 251 248 253 244 247 253 254 255 255 256 260
105 88 36 18 5 214 339 153 250 262 269 127 154 139 120 89 85 55 252 261 264 271 274 271 261 258 247 240 237 236 242 245 248 251 254 253 255 259 258 256 243 240 243 246 247 253 258 259 252
174 152 156 181 192 214 328 217 246 236 173 136 139 134 102 86 80 29 355 335 322 313 310 302 285 277 254 236 234 238 242 243 242 241 240 248 246 251 249 244 241 235 237 241 243 246 250 256 256
216 206 176 102 26 76 215 271 315 239 120 114 113 117 91 73 59 53 46 38 23 9 355 343 331 311 284 259 241 237 238 237 237 238 245 246 246 236 234 235 231 230 232 237 241 247 251 254 260
153 168 71 4 121 209 280 243 218 297 69 109 94 79 80 86 85 76 64 54 44 33 16 355 344 333 308 288 272 256 244 234 231 235 239 239 231 225 232 237 239 242 244 248 252 255 259 261 263
172 192 150 128 162 158 155 255 225 153 143 133 121 103 101 97 88 70 52 40 30 22 13 357 336 321 309 294 275 252 233 225 221 221 219 217 220 225 229 231 236 242 248 252 257 259 259 262 264
204 194 159 133 236 172 138 264 141 133 134 134 142 128 125 118 106 85 37 19 5 1 348 342 322 303 291 286 277 253 232 217 210 208 208 208 212 220 227 233 242 252 261 264 264 265 266 266 267